Le nostre stazioni meteo in Italia

Pubblicità
Il mio iltempo24.it
Lecce, Italia (16332): Temperatura & dewpoint: 18.06.2018 22:00:00 - 24.06.2018 22:00:00 (CEST)Lecce, Italia (16332): velocità del vento: 18.06.2018 22:00:00 - 24.06.2018 22:00:00 (CEST)Lecce, Italia (16332): direzione del vento: 18.06.2018 22:00:00 - 24.06.2018 22:00:00 (CEST)Lecce, Italia (16332): reduced air pressure: 18.06.2018 22:00:00 - 24.06.2018 22:00:00 (CEST)Lecce, Italia (16332): visibility: 18.06.2018 22:00:00 - 24.06.2018 22:00:00 (CEST)
Data & Tempo tt [°C] td [°C] ff [km/h] ff [kn] dd ppp [hPa] vv [km]
24.06.2018 22:00:00 20,0 15,0 9 5 NNO - 10
24.06.2018 21:00:00 20,0 14,0 8 4 NO - 10
24.06.2018 20:00:00 22,0 14,1 16 9 NNO 1014,1 10
24.06.2018 19:00:00 23,0 13,0 21 11 NNE - 10
24.06.2018 18:00:00 24,0 12,0 21 11 N - 10
24.06.2018 17:00:00 25,0 9,7 24 13 NNO 1014,4 10
24.06.2018 16:00:00 25,0 13,0 26 14 N - 10
24.06.2018 15:00:00 26,0 14,0 21 11 N - 10
24.06.2018 14:00:00 25,6 14,7 24 13 N 1014,9 10
24.06.2018 13:00:00 25,0 14,0 22 12 NNE - 10
24.06.2018 12:00:00 25,0 13,0 22 12 N - 10
24.06.2018 11:00:00 24,6 11,9 22 12 N 1014,9 10
24.06.2018 10:00:00 24,0 12,0 22 12 NNO - 10
24.06.2018 09:00:00 22,0 15,0 22 12 NNO - 10
24.06.2018 08:00:00 20,8 14,2 18 10 NO 1014,4 10
24.06.2018 07:00:00 18,0 15,0 13 7 NO - 10
24.06.2018 06:00:00 15,0 12,0 5 3 OSO - 10
24.06.2018 05:00:00 15,8 11,8 5 3 O 1014,5 10
24.06.2018 04:00:00 16,0 12,0 11 6 NO - 10
24.06.2018 03:00:00 16,0 12,0 15 8 NO - 10
24.06.2018 02:00:00 16,4 14,4 11 6 NO 1015,1 10
24.06.2018 01:00:00 17,0 13,0 9 5 NO - 10
24.06.2018 00:00:00 16,0 12,0 9 5 NO - 10
23.06.2018 23:00:00 17,6 11,9 8 4 NNO 1015,3 10
23.06.2018 22:00:00 19,0 11,0 8 4 N - 10
23.06.2018 21:00:00 20,0 10,0 13 7 N - 10
23.06.2018 20:00:00 22,0 11,1 22 12 N 1014,7 10
23.06.2018 19:00:00 24,0 10,0 31 17 NNO - 10
23.06.2018 18:00:00 24,0 11,0 31 17 N - 10
23.06.2018 17:00:00 24,0 15,8 26 14 N 1015,1 10
23.06.2018 16:00:00 24,0 15,0 28 15 N - 10
23.06.2018 15:00:00 24,0 14,0 28 15 N - 10
23.06.2018 14:00:00 24,6 15,0 28 15 N 1015,1 10
23.06.2018 13:00:00 25,0 16,0 29 16 N - 10
23.06.2018 12:00:00 24,0 18,0 28 15 N - 10
23.06.2018 11:00:00 24,4 19,7 24 13 NNO 1014,7 10
23.06.2018 10:00:00 25,0 18,0 18 10 NO - 10
23.06.2018 09:00:00 22,0 18,0 22 12 NO - 10
23.06.2018 08:00:00 21,2 19,1 13 7 NO 1013,7 10
23.06.2018 07:00:00 21,0 20,0 13 7 ONO - 10
23.06.2018 06:00:00 21,0 19,0 8 4 NO - 10
23.06.2018 05:00:00 20,8 19,5 9 5 ONO 1012,5 10
23.06.2018 04:00:00 22,0 20,0 18 10 NNO - 10
23.06.2018 03:00:00 23,0 22,0 13 7 NNO - 10
23.06.2018 02:00:00 23,0 21,5 5 3 N 1012,3 10
23.06.2018 01:00:00 23,0 21,0 8 4 SSO - 10
23.06.2018 00:00:00 23,0 21,0 8 4 SSE - 10
22.06.2018 23:00:00 23,0 20,9 2 1 - 1012,1 10
22.06.2018 22:00:00 23,0 21,0 8 4 S - 10
22.06.2018 21:00:00 24,0 21,0 11 6 S - 10
22.06.2018 20:00:00 25,0 17,5 18 10 S 1011,3 10
22.06.2018 19:00:00 27,0 17,0 18 10 S - 10
22.06.2018 18:00:00 28,0 14,0 16 9 SO - 10
22.06.2018 17:00:00 29,4 13,6 18 10 SO 1011,3 10
22.06.2018 16:00:00 29,0 14,0 16 9 SO - 10
22.06.2018 15:00:00 29,0 17,0 21 11 SO - 10
22.06.2018 14:00:00 29,0 16,2 21 11 SO 1012,5 10
22.06.2018 13:00:00 29,0 16,0 16 9 OSO - 10
22.06.2018 12:00:00 28,0 16,0 15 8 SO - 10
22.06.2018 11:00:00 28,4 18,2 11 6 OSO 1013,5 10
22.06.2018 10:00:00 27,0 18,0 13 7 OSO - 10
22.06.2018 09:00:00 26,0 18,0 11 6 OSO - 10
22.06.2018 08:00:00 25,0 20,0 9 5 SO 1013,8 10
22.06.2018 07:00:00 22,0 21,0 5 3 S - 10
22.06.2018 06:00:00 20,0 19,0 5 3 SSE - 10
22.06.2018 05:00:00 20,0 19,2 8 4 S 1013,8 10
22.06.2018 04:00:00 20,0 19,0 5 3 - - 10
22.06.2018 03:00:00 21,0 20,0 0 0 N - 10
22.06.2018 02:00:00 20,8 19,6 0 0 N 1014,6 10
22.06.2018 01:00:00 21,0 19,0 0 0 N - 10
22.06.2018 00:00:00 21,0 19,0 0 0 N - 10
21.06.2018 23:00:00 21,4 17,8 4 2 N 1015,2 10
21.06.2018 22:00:00 23,0 18,0 5 3 - - 10
21.06.2018 21:00:00 25,0 18,0 5 3 - - 10
21.06.2018 20:00:00 26,0 17,9 4 2 N 1014,3 10
21.06.2018 19:00:00 26,0 19,0 9 5 N - 10
21.06.2018 18:00:00 27,0 20,0 9 5 NNE - 10
21.06.2018 17:00:00 28,0 20,0 9 5 N 1014,5 10
21.06.2018 16:00:00 27,0 20,0 9 5 O - 10
21.06.2018 15:00:00 28,0 18,0 13 7 N - 10
21.06.2018 14:00:00 29,0 20,2 15 8 NNE 1015,8 10
21.06.2018 13:00:00 29,0 18,0 15 8 NNE - 10
21.06.2018 12:00:00 28,0 18,0 13 7 N - 10
21.06.2018 11:00:00 27,0 19,1 13 7 N 1016,9 10
21.06.2018 10:00:00 25,0 22,0 11 6 N - 10
21.06.2018 09:00:00 24,0 22,0 15 8 ONO - 8
21.06.2018 08:00:00 22,8 21,6 11 6 NNO 1016,5 7
21.06.2018 07:00:00 21,0 21,0 9 5 NNO - 6
21.06.2018 06:00:00 21,0 20,0 9 5 NNO - 5
21.06.2018 05:00:00 20,6 19,8 8 4 NNO 1016,8 7
21.06.2018 04:00:00 21,0 20,0 8 4 ONO - 10
21.06.2018 03:00:00 21,0 20,0 9 5 ONO - 10
21.06.2018 02:00:00 22,2 20,5 9 5 ONO 1017,8 10
21.06.2018 01:00:00 23,0 21,0 8 4 N - 10
21.06.2018 00:00:00 23,0 21,0 5 3 - - 10
20.06.2018 23:00:00 23,8 21,1 4 2 N 1017,8 10
20.06.2018 22:00:00 24,0 21,0 5 3 - - 10
20.06.2018 21:00:00 25,0 19,0 13 7 ENE - 10
20.06.2018 20:00:00 26,0 17,4 5 3 N 1016,6 10
20.06.2018 19:00:00 27,0 17,0 15 8 NNO - 10
20.06.2018 18:00:00 27,0 17,0 15 8 NNO - 10
20.06.2018 17:00:00 27,2 17,1 24 13 ONO 1016,6 10
20.06.2018 16:00:00 28,0 18,0 22 12 O - 10
20.06.2018 15:00:00 28,0 17,0 15 8 O - 10
20.06.2018 14:00:00 30,0 16,1 9 5 ESE 1016,3 10
20.06.2018 13:00:00 31,0 17,0 11 6 SSE - 10
20.06.2018 12:00:00 29,0 18,0 13 7 ENE - 10
20.06.2018 11:00:00 28,8 17,7 13 7 E 1017,0 10
20.06.2018 10:00:00 27,0 20,0 13 7 N - 10
20.06.2018 09:00:00 26,0 20,0 11 6 NNE - 10
20.06.2018 08:00:00 25,0 22,1 11 6 N 1016,7 10
20.06.2018 07:00:00 22,0 21,0 8 4 NNO - 10
20.06.2018 06:00:00 21,0 20,0 9 5 NNO - 10
20.06.2018 05:00:00 20,6 20,0 8 4 NNO 1015,7 10
20.06.2018 04:00:00 22,0 21,0 0 0 N - 10
20.06.2018 03:00:00 22,0 21,0 9 5 NNO - 10
20.06.2018 02:00:00 22,0 21,2 8 4 NNO 1015,5 10
20.06.2018 01:00:00 22,0 21,0 5 3 NNO - 10
20.06.2018 00:00:00 22,0 19,0 5 3 N - 10
19.06.2018 23:00:00 23,0 20,3 5 3 N 1015,4 10
19.06.2018 22:00:00 24,0 20,0 11 6 N - 10
19.06.2018 21:00:00 24,0 19,0 15 8 N - 10
19.06.2018 20:00:00 26,4 15,5 15 8 NNE 1014,3 10
19.06.2018 19:00:00 27,0 16,0 16 9 NE - 10
19.06.2018 18:00:00 28,0 18,0 15 8 NE - 10
19.06.2018 17:00:00 28,0 18,4 24 13 N 1013,3 10
19.06.2018 16:00:00 28,0 18,0 24 13 N - 10
19.06.2018 15:00:00 28,0 18,0 24 13 N - 10
19.06.2018 14:00:00 27,6 17,2 24 13 N 1013,1 10
19.06.2018 13:00:00 28,0 18,0 22 12 NNE - 10
19.06.2018 12:00:00 29,0 19,0 21 11 NNE - 10
19.06.2018 11:00:00 27,8 18,8 21 11 NNE 1012,9 10
19.06.2018 10:00:00 27,0 19,0 21 11 NNE - 10
19.06.2018 09:00:00 27,0 19,0 18 10 N - 10
19.06.2018 08:00:00 25,2 20,0 21 11 N 1011,7 10
19.06.2018 07:00:00 24,0 21,0 16 9 N - 10
19.06.2018 06:00:00 23,0 22,0 8 4 NNO - 10
19.06.2018 05:00:00 23,6 22,4 4 2 ONO 1011,0 10
19.06.2018 04:00:00 23,0 22,0 5 3 N - 10
19.06.2018 03:00:00 23,0 22,0 8 4 NO - 10
19.06.2018 02:00:00 23,4 22,0 5 3 NNO 1011,1 10
19.06.2018 01:00:00 23,0 22,0 4 2 NNO - 10
19.06.2018 00:00:00 23,0 22,0 5 3 NNO - 10
18.06.2018 23:00:00 22,6 21,1 9 5 N 1011,4 10
18.06.2018 22:00:00 23,0 22,0 9 5 N - 10

tt = Temperatura
td = dewpoint
ff = velocità del vento
dd = direzione del vento
ppp = reduced air pressure
vv = visibility

Stazioni seguenti

WeatherPro
AMSI
MeteoEarth